FENGYUN 1C DEB, 30702

Orbit data source: Space-Track

FENGYUN 1C DEB, 30702 is space debris in SSO originally from a launch on Mon, 10 May 1999 UTC launched from the Taiyaun Space Center, China (TSC). Fengyun 1C debris stems from the Chinese weather satellite Fengyun-1C, which was intentionally destroyed by a Chinese anti-satellite missile in 2007. This event dramatically increased the amount of space debris, with thousands of trackable fragments posing hazards to satellites and human spaceflight. The Fengyun 1C debris cloud has become a focal point in discussions about space sustainability and the need for international regulations to prevent the creation of new debris.

Loading next visibility...
Identifier
30702, 1999-025ARL
Orbit
SSO
Country
Flag of CNCN / PRC
Related business
Manufacturer
Unknown
Mission
Spacecraft
Bus & Motor
Unknown
Mass
Unknown
Launch date (UTC)
1999-05-10 (27 years ago)
Launch vehicle
Unknown
Launch site
Taiyaun Space Center, China (TSC)
Object type
Payload
Rocket body
Debris
Shape & HBR
Unknown shape, 0.1 m
Radar Cross Section
Small (<0.1 m²)

Expand to show TLE details & history
Last TLE update: 12 hours ago

TLE from 12 hours ago
0 FENGYUN 1C DEB
1 30702U 99025ARL 26123.99386772  .00001181  00000-0  75889-3 0  9993
2 30702  98.7574 143.7761 0067820 262.3362 126.9995 14.03990398981588
Epoch: 2026-05-03T23:51Z
TLE epoch observation values (Epoch: 2026-05-03T23:51:10.171Z)
Latitude
29.61846°
Longitude
-80.90356°
Altitude
913.521 km
Speed
7.383 km/s
True Right ascension
09h 15m 06s
True Declination
29° 28' 27"
Sunlit
Object was in daylight at epoch
Visualization orbit readout
Latitude
Unknown
Longitude
Unknown
Altitude
Unknown
Speed
Unknown
Apparent Right ascension
Unknown
Apparent Declination
Unknown
Sunlit
N/A
Visualization observer readout
Local Sidereal Time
19:52:08
Azimuth
Unknown
Elevation
Unknown
Doppler factor
Unknown
Orbital elements
Apogee altitude
926.398 km
Perigee altitude
827.986 km
Semi-major axis
7,255.329 km
Eccentricity
0.00678
Inclination
98.7574°
RAAN
143.7761°
Arg. of periapsis
262.3362°
True anomaly
127.61701°
Mean anomaly
126.9995°
Eccentric anomaly
127.30857°
Mean motion
3.51202 °/min
Orbital period
102.5 mins
BSTAR
0.00075889
Loading maneuver chart data...
Computing Atmospheric mass density...

Documentation

Showing up to 5 results
|